FW1364 Weather Reports


time (UTC)temp
C
wind
direction
speed
KPH
gust
KPH
rain 1hr
cm
rain 24hr
cm
rain mn
cm
humidity
%
barometer
mb
20260509213035 19 261 0.0 0.0 0.00 0.66 0.66 59 1007.7
20260509211533 19 239 0.0 0.0 0.00 0.66 0.66 60 1007.6
20260509210033 20 179 0.0 4.8 0.00 0.66 0.66 59 1007.8
20260509204529 20 205 0.0 1.6 0.00 0.66 0.66 59 1007.9
20260509203029 19 217 0.0 1.6 0.00 0.66 0.66 61 1008.0
20260509201528 19 185 0.0 0.0 0.00 0.66 0.66 61 1008.3
20260509200025 19 190 0.0 6.4 0.00 0.66 0.66 61 1008.5
20260509194523 19 330 0.0 3.2 0.00 0.66 0.66 65 1008.5
20260509193019 18 289 0.0 1.6 0.00 0.66 0.66 72 1008.9
20260509191517 17 201 0.0 1.6 0.00 0.66 0.66 73 1009.2
20260509190016 17 257 0.0 4.8 0.00 0.66 0.66 74 1009.4
20260509184521 17 212 0.0 1.6 0.00 0.66 0.66 77 1009.6
20260509183009 16 206 0.0 3.2 0.00 0.66 0.66 79 1009.7
20260509181505 15 269 0.0 0.0 0.00 0.66 0.66 82 1009.8
20260509180004 15 225 0.0 0.0 0.00 0.66 0.66 82 1009.7
20260509174504 14 168 0.0 1.6 0.00 0.66 0.66 82 1009.8
20260509173002 15 231 0.0 4.8 0.00 0.66 0.66 85 1009.7
20260509171559 13 263 0.0 1.6 0.00 0.66 0.66 85 1009.6
20260509170107 13 254 0.0 1.6 0.00 0.66 0.66 86 1009.5
20260509164559 13 279 0.0 1.6 0.00 0.66 0.66 87 1009.3
20260509163054 13 202 0.0 0.0 0.00 0.66 0.66 90 1009.4
20260509161558 12 202 0.0 0.0 0.00 0.66 0.66 90 1009.0
20260509160052 12 204 0.0 0.0 0.03 0.66 0.66 90 1009.3
20260509154553 12 264 0.0 0.0 0.05 0.66 0.66 91 1009.2
20260509153054 12 245 0.0 4.8 0.08 0.66 0.66 91 1008.9
20260509151547 12 265 0.0 3.2 0.10 0.66 0.66 92 1009.0
20260509150049 11 188 0.0 3.2 0.10 0.64 0.64 91 1009.4
20260509144542 11 180 0.0 1.6 0.13 0.61 0.61 91 1009.5
20260509143040 11 204 0.0 0.0 0.15 0.58 0.58 91 1009.6
20260509141538 11 241 0.0 3.2 0.18 0.56 0.56 91 1009.6
20260509140037 11 125 0.0 3.2 0.20 0.53 0.53 91 1009.6
20260509134550 11 183 0.0 6.4 0.20 0.48 0.48 90 1009.8
20260509133035 11 211 0.0 0.0 0.20 0.43 0.43 90 1009.8
20260509131547 11 216 0.0 1.6 0.18 0.36 0.36 90 1010.0
20260509130038 11 157 0.0 1.6 0.18 0.33 0.33 90 1010.0
20260509124531 11 261 0.0 1.6 0.13 0.28 0.28 90 1010.0
20260509123030 11 204 0.0 0.0 0.08 0.23 0.23 90 1010.1
20260509121529 11 142 0.0 0.0 0.03 0.18 0.18 90 1010.1
20260509120028 11 207 0.0 0.0 0.00 0.15 0.15 90 1010.2
20260509114528 11 207 0.0 0.0 0.00 0.15 0.15 90 1010.1
20260509113024 11 206 0.0 0.0 0.03 0.15 0.15 90 1010.0
20260509111519 11 222 0.0 0.0 0.05 0.15 0.15 90 1010.0
20260509110014 11 222 0.0 0.0 0.05 0.15 0.15 89 1009.9
20260509104511 11 222 0.0 0.0 0.08 0.15 0.15 89 1009.9
20260509103006 11 222 0.0 0.0 0.08 0.13 0.13 89 1009.9
20260509101501 11 221 0.0 1.6 0.05 0.10 0.10 89 1010.0
20260509100058 11 232 0.0 0.0 0.08 0.10 0.10 89 1010.0
20260509094553 11 230 0.0 0.0 0.05 0.08 0.08 89 1010.1
20260509093057 10 228 0.0 0.0 0.03 0.05 0.05 90 1010.1
20260509091552 10 118 0.0 6.4 0.05 0.05 0.05 92 1010.4
20260509090047 10 213 0.0 0.0 0.03 0.03 0.03 92 1010.5
20260509084550 10 212 0.0 0.0 0.03 0.03 0.03 93 1010.6
20260509083048 10 179 0.0 0.0 0.03 0.03 0.03 93 1010.6
20260509081549 10 180 0.0 0.0 0.00 0.00 0.00 93 1010.6
20260509080044 10 180 0.0 0.0 0.00 0.00 0.00 93 1010.1
20260509074553 10 180 0.0 0.0 0.00 0.00 0.00 93 1009.9
20260509073043 10 77 0.0 0.0 0.00 0.00 0.00 93 1009.6
20260509071542 10 77 0.0 0.0 0.00 0.00 0.00 93 1009.2
20260509070042 10 66 0.0 1.6 0.00 0.00 0.00 93 1009.3
20260509064555 10 346 0.0 0.0 0.00 0.00 0.00 92 1009.5
20260509063043 10 346 0.0 0.0 0.00 0.00 0.00 92 1009.6
20260509061537 10 346 0.0 0.0 0.00 0.00 0.00 92 1009.9
20260509060033 10 346 0.0 0.0 0.00 0.00 0.00 92 1010.3
20260509054535 10 346 0.0 0.0 0.00 0.00 0.00 92 1010.6
20260509053031 10 346 0.0 0.0 0.00 0.00 0.00 92 1010.7
20260509051534 10 346 0.0 0.0 0.00 0.00 0.00 92 1010.9
20260509050033 10 346 0.0 0.0 0.00 0.00 0.00 91 1010.8
20260509044527 10 346 0.0 0.0 0.00 0.00 0.00 91 1010.8
20260509043026 10 346 0.0 0.0 0.00 0.00 0.00 91 1010.8
20260509041523 10 346 0.0 0.0 0.00 0.00 0.00 90 1011.0
20260509040021 10 346 0.0 0.0 0.00 0.00 0.00 90 1011.1
20260509034537 10 346 0.0 0.0 0.00 0.00 0.00 89 1011.5
20260509033020 11 346 0.0 0.0 0.00 0.00 0.00 89 1011.8
20260509031519 11 346 0.0 0.0 0.00 0.00 0.00 88 1012.1
20260509030022 11 346 0.0 0.0 0.00 0.00 0.00 88 1012.1
20260509024519 11 346 0.0 0.0 0.00 0.00 0.00 87 1012.3
20260509023018 11 346 0.0 0.0 0.00 0.00 0.00 86 1012.4
20260509021520 11 346 0.0 0.0 0.00 0.00 0.00 85 1012.4
20260509020018 11 346 0.0 0.0 0.00 0.00 0.00 85 1012.1
20260509014516 11 346 0.0 0.0 0.00 0.00 0.00 84 1012.0
20260509013016 11 38 0.0 0.0 0.00 0.00 0.00 83 1011.5
20260509011515 12 38 0.0 0.0 0.00 0.00 0.00 82 1011.4
20260509010017 12 38 0.0 0.0 0.00 0.00 0.00 80 1011.1
20260509004514 12 38 0.0 0.0 0.00 0.00 0.00 79 1010.9
20260509003014 12 38 0.0 0.0 0.00 0.00 0.00 77 1010.9
20260509001513 13 40 0.0 0.0 0.00 0.00 0.00 72 1011.0
20260509000012 13 40 0.0 0.0 0.00 0.00 0.00 69 1010.9
20260508234513 13 40 0.0 0.0 0.00 0.00 0.00 67 1011.0
20260508233012 14 15 0.0 0.0 0.00 0.00 0.00 66 1011.1
20260508231511 14 15 0.0 0.0 0.00 0.00 0.00 65 1011.0
20260508230011 15 15 0.0 0.0 0.00 0.00 0.00 63 1011.1
20260508224512 15 17 0.0 0.0 0.00 0.00 0.00 60 1011.1
20260508223010 16 128 0.0 0.0 0.00 0.00 0.00 56 1010.9
20260508221511 16 127 0.0 0.0 0.00 0.00 0.00 56 1010.9
20260508220008 16 127 0.0 0.0 0.00 0.00 0.00 53 1010.9
20260508214508 16 127 0.0 0.0 0.00 0.00 0.00 54 1011.1